| time (UTC) | temp F | wind direction | speed MPH | gust MPH | rain 1hr in | rain 24hr in | rain mn in | humidity % | barometer mb |
| 20260831193055 | 89 | 278 | 3.0 | 9.0 | 0.00 | 0.00 | 0.00 | 48 | 1010.1 |
| 20260831191553 | 90 | 329 | 2.0 | 11.0 | 0.00 | 0.00 | 0.00 | 49 | 1010.2 |
| 20260831190110 | 89 | 355 | 4.0 | 10.0 | 0.00 | 0.00 | 0.00 | 46 | 1010.2 |
| 20260831184549 | 89 | 305 | 4.0 | 10.0 | 0.00 | 0.00 | 0.00 | 42 | 1010.0 |
| 20260831183057 | 88 | 311 | 4.0 | 10.0 | 0.00 | 0.00 | 0.00 | 49 | 1010.0 |
| 20260831181546 | 87 | 333 | 3.0 | 9.0 | 0.00 | 0.00 | 0.00 | 53 | 1010.0 |
| 20260831180042 | 87 | 340 | 2.0 | 8.0 | 0.00 | 0.00 | 0.00 | 58 | 1010.2 |
| 20260831174539 | 86 | 282 | 3.0 | 9.0 | 0.00 | 0.00 | 0.00 | 62 | 1010.2 |
| 20260831173039 | 85 | 328 | 4.0 | 8.0 | 0.00 | 0.00 | 0.00 | 64 | 1010.3 |
| 20260831171537 | 85 | 267 | 1.0 | 8.0 | 0.00 | 0.00 | 0.00 | 68 | 1010.4 |
| 20260831170033 | 85 | 319 | 2.0 | 6.0 | 0.00 | 0.00 | 0.00 | 69 | 1010.4 |
| 20260831164531 | 84 | 5 | 3.0 | 9.0 | 0.00 | 0.00 | 0.00 | 69 | 1010.3 |
| 20260831163038 | 84 | 298 | 2.0 | 8.0 | 0.00 | 0.00 | 0.00 | 70 | 1010.1 |
| 20260831161526 | 84 | 315 | 2.0 | 6.0 | 0.00 | 0.00 | 0.00 | 70 | 1009.9 |
| 20260831160036 | 83 | 310 | 1.0 | 4.0 | 0.00 | 0.00 | 0.00 | 73 | 1009.9 |
| 20260831154522 | 82 | 312 | 2.0 | 9.0 | 0.00 | 0.00 | 0.00 | 73 | 1010.0 |
| 20260831153020 | 82 | 327 | 4.0 | 9.0 | 0.00 | 0.00 | 0.00 | 74 | 1010.0 |
| 20260831151522 | 82 | 298 | 3.0 | 8.0 | 0.00 | 0.00 | 0.00 | 75 | 1009.8 |
| 20260831150019 | 80 | 286 | 4.0 | 8.0 | 0.00 | 0.00 | 0.00 | 78 | 1009.6 |
| 20260831144519 | 79 | 229 | 3.0 | 8.0 | 0.00 | 0.00 | 0.00 | 80 | 1009.3 |
| 20260831143008 | 78 | 280 | 3.0 | 8.0 | 0.00 | 0.00 | 0.00 | 81 | 1009.2 |
| 20260831141506 | 77 | 291 | 3.0 | 6.0 | 0.00 | 0.00 | 0.00 | 81 | 1009.0 |
| 20260831140002 | 76 | 232 | 2.0 | 5.0 | 0.00 | 0.00 | 0.00 | 83 | 1008.9 |
| 20260831134602 | 75 | 225 | 1.0 | 5.0 | 0.00 | 0.00 | 0.00 | 85 | 1008.9 |
| 20260831133055 | 75 | 273 | 2.0 | 7.0 | 0.00 | 0.00 | 0.00 | 86 | 1008.5 |
| 20260831131548 | 74 | 249 | 2.0 | 4.0 | 0.00 | 0.00 | 0.00 | 87 | 1008.5 |
| 20260831130049 | 73 | 241 | 2.0 | 4.0 | 0.00 | 0.00 | 0.00 | 89 | 1008.3 |
| 20260831124549 | 72 | 198 | 1.0 | 5.0 | 0.00 | 0.00 | 0.00 | 90 | 1008.0 |
| 20260831123040 | 72 | 193 | 3.0 | 5.0 | 0.00 | 0.00 | 0.00 | 90 | 1008.0 |
| 20260831121536 | 72 | 209 | 1.0 | 3.0 | 0.00 | 0.00 | 0.00 | 90 | 1007.9 |
| 20260831120049 | 72 | 209 | 0.0 | 3.0 | 0.00 | 0.00 | 0.00 | 90 | 1007.8 |
| 20260831114531 | 72 | 209 | 0.0 | 2.0 | 0.00 | 0.00 | 0.00 | 89 | 1007.5 |
| 20260831113029 | 72 | 205 | 1.0 | 4.0 | 0.00 | 0.00 | 0.00 | 89 | 1007.3 |
| 20260831111527 | 72 | 193 | 1.0 | 4.0 | 0.00 | 0.00 | 0.00 | 89 | 1007.2 |
| 20260831110028 | 73 | 189 | 2.0 | 6.0 | 0.00 | 0.00 | 0.00 | 89 | 1006.9 |
| 20260831104527 | 73 | 180 | 3.0 | 6.0 | 0.00 | 0.00 | 0.00 | 89 | 1006.7 |
| 20260831103027 | 73 | 241 | 2.0 | 6.0 | 0.00 | 0.00 | 0.00 | 89 | 1006.9 |
| 20260831101525 | 73 | 166 | 1.0 | 3.0 | 0.00 | 0.00 | 0.00 | 88 | 1006.8 |
| 20260831100025 | 73 | 160 | 2.0 | 5.0 | 0.00 | 0.00 | 0.00 | 88 | 1006.8 |
| 20260831094523 | 73 | 175 | 2.0 | 4.0 | 0.00 | 0.00 | 0.00 | 88 | 1006.9 |
| 20260831093023 | 73 | 178 | 3.0 | 5.0 | 0.00 | 0.00 | 0.00 | 87 | 1006.7 |
| 20260831091522 | 73 | 180 | 4.0 | 6.0 | 0.00 | 0.00 | 0.00 | 87 | 1006.8 |
| 20260831090020 | 74 | 182 | 4.0 | 8.0 | 0.00 | 0.00 | 0.00 | 87 | 1006.7 |
| 20260831084523 | 73 | 186 | 3.0 | 6.0 | 0.00 | 0.00 | 0.00 | 86 | 1006.7 |
| 20260831083019 | 74 | 167 | 4.0 | 6.0 | 0.00 | 0.00 | 0.00 | 86 | 1006.7 |
| 20260831081521 | 74 | 164 | 4.0 | 7.0 | 0.00 | 0.00 | 0.00 | 85 | 1006.6 |
| 20260831080028 | 74 | 161 | 4.0 | 6.0 | 0.00 | 0.00 | 0.00 | 85 | 1006.5 |
| 20260831074514 | 74 | 175 | 2.0 | 5.0 | 0.00 | 0.00 | 0.00 | 84 | 1006.7 |
| 20260831073013 | 74 | 167 | 4.0 | 8.0 | 0.00 | 0.00 | 0.00 | 84 | 1006.6 |
| 20260831071511 | 74 | 167 | 4.0 | 9.0 | 0.00 | 0.00 | 0.00 | 84 | 1006.6 |
| 20260831070013 | 74 | 170 | 2.0 | 9.0 | 0.00 | 0.00 | 0.00 | 83 | 1006.8 |
| 20260831064508 | 74 | 161 | 5.0 | 11.0 | 0.00 | 0.00 | 0.00 | 83 | 1007.0 |
| 20260831063007 | 74 | 165 | 5.0 | 9.0 | 0.00 | 0.00 | 0.00 | 83 | 1007.2 |
| 20260831061502 | 74 | 173 | 5.0 | 9.0 | 0.00 | 0.00 | 0.00 | 82 | 1007.3 |
| 20260831060058 | 75 | 171 | 4.0 | 9.0 | 0.00 | 0.00 | 0.00 | 82 | 1007.5 |
| 20260831054554 | 75 | 182 | 5.0 | 10.0 | 0.00 | 0.00 | 0.00 | 82 | 1007.5 |
| 20260831053050 | 75 | 172 | 6.0 | 10.0 | 0.00 | 0.00 | 0.00 | 82 | 1007.7 |
| 20260831051555 | 75 | 145 | 5.0 | 8.0 | 0.00 | 0.00 | 0.00 | 81 | 1008.0 |
| 20260831050042 | 75 | 156 | 3.0 | 8.0 | 0.00 | 0.00 | 0.00 | 81 | 1008.3 |
| 20260831044540 | 75 | 172 | 3.0 | 7.0 | 0.00 | 0.00 | 0.00 | 81 | 1008.2 |
| 20260831043039 | 75 | 163 | 4.0 | 7.0 | 0.00 | 0.00 | 0.00 | 81 | 1008.3 |
| 20260831041539 | 75 | 177 | 1.0 | 9.0 | 0.00 | 0.00 | 0.00 | 81 | 1008.3 |
| 20260831040039 | 75 | 161 | 3.0 | 8.0 | 0.00 | 0.00 | 0.00 | 80 | 1008.3 |
| 20260831034546 | 75 | 182 | 5.0 | 7.0 | 0.00 | 0.00 | 0.00 | 80 | 1008.1 |
| 20260831033038 | 76 | 173 | 6.0 | 11.0 | 0.00 | 0.00 | 0.00 | 79 | 1008.2 |
| 20260831031538 | 76 | 149 | 6.0 | 9.0 | 0.00 | 0.00 | 0.00 | 78 | 1008.2 |
| 20260831030037 | 76 | 170 | 7.0 | 14.0 | 0.00 | 0.00 | 0.00 | 77 | 1007.9 |
| 20260831024539 | 77 | 168 | 5.0 | 10.0 | 0.00 | 0.00 | 0.00 | 76 | 1008.0 |
| 20260831023036 | 77 | 148 | 5.0 | 10.0 | 0.00 | 0.00 | 0.00 | 75 | 1008.1 |
| 20260831021539 | 78 | 178 | 8.0 | 16.0 | 0.00 | 0.00 | 0.00 | 74 | 1008.1 |
| 20260831020035 | 78 | 166 | 6.0 | 11.0 | 0.00 | 0.00 | 0.00 | 72 | 1008.2 |
| 20260831014534 | 79 | 153 | 5.0 | 10.0 | 0.00 | 0.00 | 0.00 | 71 | 1008.2 |
| 20260831013034 | 80 | 162 | 10.0 | 15.0 | 0.00 | 0.00 | 0.00 | 70 | 1008.2 |
| 20260831011543 | 80 | 164 | 10.0 | 20.0 | 0.00 | 0.00 | 0.00 | 68 | 1007.9 |
| 20260831010039 | 82 | 150 | 8.0 | 20.0 | 0.00 | 0.00 | 0.00 | 64 | 1007.7 |
| 20260831004532 | 83 | 172 | 12.0 | 18.0 | 0.00 | 0.00 | 0.00 | 62 | 1007.5 |
| 20260831003036 | 84 | 140 | 5.0 | 8.0 | 0.00 | 0.00 | 0.00 | 63 | 1007.5 |
| 20260831001531 | 84 | 164 | 5.0 | 11.0 | 0.00 | 0.00 | 0.00 | 61 | 1007.0 |
| 20260831000032 | 85 | 169 | 6.0 | 11.0 | 0.00 | 0.00 | 0.00 | 62 | 1007.0 |
| 20260830234538 | 86 | 172 | 7.0 | 12.0 | 0.00 | 0.00 | 0.00 | 63 | 1006.9 |
| 20260830233030 | 86 | 169 | 5.0 | 16.0 | 0.00 | 0.00 | 0.00 | 64 | 1007.0 |
| 20260830231530 | 86 | 155 | 8.0 | 16.0 | 0.00 | 0.00 | 0.00 | 63 | 1007.0 |
| 20260830230028 | 86 | 178 | 5.0 | 18.0 | 0.00 | 0.00 | 0.00 | 63 | 1007.1 |
| 20260830224528 | 87 | 153 | 2.0 | 5.0 | 0.00 | 0.00 | 0.00 | 65 | 1006.9 |
| 20260830223027 | 87 | 107 | 2.0 | 6.0 | 0.00 | 0.00 | 0.00 | 66 | 1006.8 |
| 20260830221540 | 86 | 86 | 3.0 | 8.0 | 0.00 | 0.00 | 0.00 | 66 | 1006.7 |
| 20260830220026 | 87 | 78 | 2.0 | 11.0 | 0.00 | 0.00 | 0.00 | 65 | 1007.0 |
| 20260830214523 | 86 | 146 | 1.0 | 7.0 | 0.00 | 0.00 | 0.00 | 66 | 1007.1 |
| 20260830213023 | 86 | 104 | 2.0 | 8.0 | 0.00 | 0.00 | 0.00 | 65 | 1007.1 |
| 20260830211521 | 85 | 82 | 3.0 | 14.0 | 0.00 | 0.00 | 0.00 | 67 | 1007.3 |
| 20260830210019 | 86 | 99 | 3.0 | 10.0 | 0.00 | 0.00 | 0.00 | 65 | 1007.5 |
| 20260830204518 | 85 | 157 | 3.0 | 9.0 | 0.00 | 0.00 | 0.00 | 66 | 1007.6 |
| 20260830203016 | 86 | 115 | 4.0 | 9.0 | 0.00 | 0.00 | 0.00 | 63 | 1007.8 |
| 20260830201514 | 86 | 106 | 3.0 | 10.0 | 0.00 | 0.00 | 0.00 | 65 | 1008.0 |
| 20260830200031 | 85 | 117 | 4.0 | 10.0 | 0.00 | 0.00 | 0.00 | 66 | 1007.9 |
| 20260830194512 | 85 | 175 | 5.0 | 12.0 | 0.00 | 0.00 | 0.00 | 65 | 1007.9 |